When you browse on this site, cookies collect data to enhance your experience and personalize the content and advertising you see.
Visit our Privacy Policy to learn more. By continuing to use the site, you agree to this use of cookies and data.
  • In Germany
  • List of Countries
  • For 7 days
  • Water Temperature
  • Weather Map
  • Weather Widgets
  • user-avatar
    Login

    Hourly Weather Wiesbaden

    Today, 19 August, Monday

    Time Temperature Precipitation Wind Pressure Humidity
    00:00 +19°C° 0 mm 2 mps 746 mmHg 85%
    01:00 +19°C° 0 mm 1 mps 746 mmHg 87%
    02:00 +19°C° 0.1 mm 1 mps 746 mmHg 85%
    03:00 +19°C° 0.1 mm 1 mps 747 mmHg 84%
    04:00 +19°C° 0.1 mm 1 mps 747 mmHg 82%
    05:00 +19°C° 0.1 mm 1 mps 747 mmHg 80%
    06:00 +19°C° 0.1 mm 1 mps 748 mmHg 78%
    07:00 +19°C° 0.1 mm 1 mps 748 mmHg 75%
    08:00 +19°C° 0 mm 2 mps 748 mmHg 66%
    09:00 +21°C° 0 mm 3 mps 748 mmHg 58%
    10:00 +22°C° 0 mm 3 mps 749 mmHg 49%
    11:00 +22°C° 0 mm 3 mps 749 mmHg 47%
    12:00 +24°C° 0 mm 3 mps 749 mmHg 45%
    13:00 +25°C° 0 mm 3 mps 749 mmHg 43%
    14:00 +25°C° 0 mm 3 mps 749 mmHg 43%
    15:00 +25°C° 0 mm 3 mps 749 mmHg 43%
    16:00 +25°C° 0 mm 2 mps 749 mmHg 43%
    17:00 +24°C° 0 mm 2 mps 749 mmHg 47%
    18:00 +23°C° 0 mm 2 mps 750 mmHg 52%
    19:00 +22°C° 0 mm 1 mps 750 mmHg 56%
    20:00 +21°C° 0 mm 1 mps 750 mmHg 59%
    21:00 +20°C° 0 mm 1 mps 750 mmHg 62%
    22:00 +19°C° 0 mm 1 mps 751 mmHg 64%
    23:00 +19°C° 0 mm 1 mps 751 mmHg 64%

    Tomorrow, 20 August, Tuesday

    Time Temperature Precipitation Wind Pressure Humidity
    00:00 +19°C° 0 mm 1 mps 751 mmHg 64%
    01:00 +19°C° 0 mm 1 mps 751 mmHg 64%
    02:00 +18°C° 0 mm 1 mps 751 mmHg 66%
    03:00 +18°C° 0 mm 1 mps 751 mmHg 68%
    04:00 +16°C° 0 mm 1 mps 751 mmHg 70%
    05:00 +18°C° 0 mm 1 mps 752 mmHg 69%
    06:00 +18°C° 0 mm 1 mps 752 mmHg 68%
    07:00 +18°C° 0 mm 1 mps 752 mmHg 68%
    08:00 +19°C° 0 mm 1 mps 752 mmHg 64%
    09:00 +20°C° 0 mm 1 mps 752 mmHg 60%
    10:00 +21°C° 0 mm 1 mps 752 mmHg 56%
    11:00 +22°C° 0 mm 1 mps 753 mmHg 53%
    12:00 +22°C° 0 mm 1 mps 753 mmHg 51%
    13:00 +22°C° 0 mm 1 mps 753 mmHg 48%
    14:00 +22°C° 0.1 mm 1 mps 753 mmHg 50%
    15:00 +21°C° 0.1 mm 2 mps 753 mmHg 52%
    16:00 +21°C° 0.1 mm 2 mps 754 mmHg 54%
    17:00 +20°C° 0.1 mm 2 mps 754 mmHg 58%
    18:00 +20°C° 0.1 mm 2 mps 754 mmHg 61%
    19:00 +20°C° 0.1 mm 1 mps 754 mmHg 64%
    20:00 +19°C° 0 mm 1 mps 754 mmHg 66%
    21:00 +18°C° 0 mm 1 mps 755 mmHg 68%
    22:00 +18°C° 0 mm 1 mps 755 mmHg 69%
    23:00 +16°C° 0 mm 1 mps 755 mmHg 70%

    Day after tomorrow, 21 August, Wednesday

    Time Temperature Precipitation Wind Pressure Humidity
    00:00 +16°C° 0 mm 1 mps 755 mmHg 70%
    01:00 +15°C° 0 mm 1 mps 755 mmHg 71%
    02:00 +14°C° 0 mm 0 mps 756 mmHg 72%
    03:00 +14°C° 0 mm 0 mps 756 mmHg 73%
    04:00 +13°C° 0 mm 0 mps 756 mmHg 74%
    05:00 +14°C° 0 mm 0 mps 756 mmHg 73%
    06:00 +14°C° 0 mm 0 mps 756 mmHg 71%
    07:00 +16°C° 0 mm 1 mps 756 mmHg 69%
    08:00 +19°C° 0 mm 1 mps 756 mmHg 62%
    09:00 +21°C° 0 mm 1 mps 756 mmHg 54%
    10:00 +22°C° 0 mm 1 mps 756 mmHg 47%
    11:00 +23°C° 0 mm 1 mps 756 mmHg 44%
    12:00 +24°C° 0 mm 1 mps 755 mmHg 40%
    13:00 +25°C° 0 mm 1 mps 755 mmHg 37%
    14:00 +25°C° 0 mm 1 mps 755 mmHg 36%
    15:00 +26°C° 0 mm 1 mps 754 mmHg 35%
    16:00 +26°C° 0 mm 2 mps 754 mmHg 34%
    17:00 +24°C° 0 mm 2 mps 754 mmHg 40%
    18:00 +23°C° 0 mm 2 mps 754 mmHg 46%
    19:00 +21°C° 0 mm 2 mps 754 mmHg 51%
    20:00 +21°C° 0 mm 1 mps 754 mmHg 54%
    21:00 +20°C° 0 mm 1 mps 754 mmHg 57%
    22:00 +19°C° 0 mm 1 mps 754 mmHg 60%
    23:00 +18°C° 0 mm 1 mps 754 mmHg 62%

    22 August, Thursday

    Time Temperature Precipitation Wind Pressure Humidity
    00:00 +18°C° 0 mm 1 mps 754 mmHg 64%
    01:00 +16°C° 0 mm 1 mps 754 mmHg 66%
    02:00 +16°C° 0 mm 1 mps 754 mmHg 68%
    03:00 +15°C° 0 mm 1 mps 754 mmHg 70%
    04:00 +15°C° 0 mm 1 mps 754 mmHg 72%
    05:00 +15°C° 0 mm 1 mps 754 mmHg 71%
    06:00 +16°C° 0 mm 1 mps 754 mmHg 70%
    07:00 +18°C° 0 mm 1 mps 754 mmHg 69%
    08:00 +19°C° 0 mm 1 mps 754 mmHg 63%
    09:00 +21°C° 0 mm 1 mps 754 mmHg 58%
    10:00 +23°C° 0 mm 1 mps 754 mmHg 52%
    11:00 +24°C° 0 mm 1 mps 754 mmHg 48%
    12:00 +25°C° 0 mm 1 mps 754 mmHg 45%
    13:00 +26°C° 0 mm 1 mps 754 mmHg 41%
    14:00 +27°C° 0 mm 1 mps 754 mmHg 39%
    15:00 +27°C° 0 mm 1 mps 753 mmHg 38%
    16:00 +27°C° 0 mm 1 mps 753 mmHg 37%
    17:00 +26°C° 0 mm 1 mps 753 mmHg 42%
    18:00 +25°C° 0 mm 1 mps 753 mmHg 47%
    19:00 +23°C° 0 mm 1 mps 753 mmHg 52%
    20:00 +22°C° 0 mm 1 mps 754 mmHg 55%
    21:00 +19°C° 0 mm 0 mps 754 mmHg 58%
    22:00 +18°C° 0 mm 0 mps 754 mmHg 61%
    23:00 +18°C° 0 mm 0 mps 754 mmHg 63%

    23 August, Friday

    Time Temperature Precipitation Wind Pressure Humidity
    00:00 +17°C° 0 mm 0 mps 754 mmHg 65%
    01:00 +17°C° 0 mm 0 mps 754 mmHg 67%
    02:00 +18°C° 0 mm 1 mps 754 mmHg 69%
    03:00 +18°C° 0 mm 1 mps 754 mmHg 70%
    04:00 +18°C° 0 mm 1 mps 754 mmHg 72%
    05:00 +18°C° 0 mm 1 mps 754 mmHg 71%
    06:00 +19°C° 0 mm 1 mps 754 mmHg 69%
    07:00 +19°C° 0 mm 1 mps 754 mmHg 68%
    08:00 +21°C° 0 mm 1 mps 754 mmHg 62%
    09:00 +23°C° 0 mm 2 mps 754 mmHg 57%
    10:00 +25°C° 0 mm 2 mps 754 mmHg 51%
    11:00 +26°C° 0 mm 2 mps 754 mmHg 47%
    12:00 +27°C° 0 mm 2 mps 753 mmHg 44%
    13:00 +28°C° 0 mm 2 mps 753 mmHg 40%
    14:00 +28°C° 0 mm 2 mps 753 mmHg 39%
    15:00 +29°C° 0 mm 3 mps 752 mmHg 38%
    16:00 +29°C° 0 mm 3 mps 752 mmHg 37%
    17:00 +28°C° 0 mm 2 mps 752 mmHg 42%
    18:00 +26°C° 0 mm 2 mps 751 mmHg 47%
    19:00 +25°C° 0 mm 2 mps 751 mmHg 52%
    20:00 +24°C° 0 mm 1 mps 751 mmHg 55%
    21:00 +23°C° 0 mm 1 mps 752 mmHg 58%
    22:00 +21°C° 0 mm 1 mps 752 mmHg 61%
    23:00 +21°C° 0 mm 1 mps 751 mmHg 64%

    24 August, Saturday

    Time Temperature Precipitation Wind Pressure Humidity
    00:00 +20°C° 0 mm 1 mps 751 mmHg 66%
    01:00 +20°C° 0 mm 1 mps 751 mmHg 68%
    02:00 +19°C° 0 mm 1 mps 750 mmHg 71%
    03:00 +19°C° 0 mm 1 mps 750 mmHg 73%
    04:00 +18°C° 0 mm 1 mps 750 mmHg 76%
    05:00 +19°C° 0 mm 1 mps 750 mmHg 75%
    06:00 +19°C° 0 mm 1 mps 750 mmHg 75%
    07:00 +19°C° 0 mm 1 mps 749 mmHg 74%
    08:00 +21°C° 0 mm 1 mps 749 mmHg 68%
    09:00 +23°C° 0 mm 1 mps 749 mmHg 62%
    10:00 +25°C° 0 mm 1 mps 749 mmHg 57%
    11:00 +26°C° 0 mm 1 mps 749 mmHg 54%
    12:00 +28°C° 0 mm 2 mps 748 mmHg 51%
    13:00 +29°C° 0 mm 2 mps 748 mmHg 49%
    14:00 +29°C° 0 mm 1 mps 748 mmHg 48%
    15:00 +29°C° 0 mm 1 mps 747 mmHg 47%
    16:00 +29°C° 0 mm 1 mps 747 mmHg 47%
    17:00 +28°C° 0 mm 1 mps 747 mmHg 51%
    18:00 +27°C° 0 mm 1 mps 747 mmHg 56%
    19:00 +26°C° 0 mm 1 mps 747 mmHg 60%
    20:00 +25°C° 0 mm 1 mps 747 mmHg 63%
    21:00 +22°C° 0 mm 0 mps 747 mmHg 66%
    22:00 +21°C° 0 mm 0 mps 747 mmHg 68%
    23:00 +20°C° 0 mm 0 mps 747 mmHg 70%
    Show more